Location: Bergnershof
(48.9468°N, 10.9431°E)
Time: 00:01:02
(UTC+00:00)

CSL-04 Rocket - Pass Details

Date: 03 March 2021
Orbit: 805 x 861 km, 98.9° (Epoch: 13 April)

Event Time Altitude Azimuth Distance (km) Brightness Sun altitude
Rises 18:21:50 0° 165° (SSE) 3,425 6.7 -13.7°
Reaches altitude 10° 18:24:12 10° 167° (SSE) 2,490 6.0 -14.1°
Maximum altitude 18:29:45 82° 255° (WSW) 870 3.8 -15.0°
Drops below altitude 10° 18:35:18 10° 343° (NNW) 2,485 6.5 -15.9°
Sets 18:37:40 0° 345° (NNW) 3,417 7.2 -16.3°
